Regional Weather Roundup
Issued by NWS Raleigh/Durham, NC

Home | Current Version | Previous Version | Text Only | Print | Product List | Glossary On
Versions: 1 2 3 4 5 6 7 8 9 10 11 12 13 14 15 16 17 18 19 20 21 22 23 24 25 26 27
000
ASUS42 KRAH 280710
RWRRAH
NORTH CAROLINA WEATHER ROUNDUP
NATIONAL WEATHER SERVICE RALEIGH NC
300 AM EDT TUE JUN 28 2016

NOTE: "FAIR" INDICATES FEW OR NO CLOUDS BELOW 12,000 FEET WITH NO
SIGNIFICANT WEATHER AND/OR OBSTRUCTIONS TO VISIBILITY.

NCZ001-053-055-056-065-067-280800-
WESTERN NORTH CAROLINA

CITY           SKY/WX    TMP DP  RH WIND       PRES   REMARKS
ASHEVILLE      CLOUDY    69  66  90 N6        30.08F
JEFFERSON      PTCLDY    67  64  93 W5        30.10F
MORGANTON      CLOUDY    71  71 100 CALM      30.06F FOG
HICKORY        CLOUDY    72  72 100 SW3       30.01F
RUTHERFORDTON  CLOUDY    69  69 100 N3        30.02F
MOUNT AIRY     CLOUDY    71  69  94 CALM      30.03F FOG
BOONE          CLOUDY    67  66  97 W7        30.11F
$$

NCZ021-022-025-041-071-084-088-280800-
CENTRAL NORTH CAROLINA

CITY           SKY/WX    TMP DP  RH WIND       PRES   REMARKS
CHARLOTTE      CLOUDY    72  69  90 CALM      30.01F
GREENSBORO     CLOUDY    72  71  97 W3        30.00F
WINSTON-SALEM  CLOUDY    72  69  90 SW3       30.02S
RALEIGH-DURHAM CLOUDY    76  68  76 SW7       29.99S
FORT BRAGG     CLOUDY    77  70  81 S6        29.98F
FAYETTEVILLE   CLOUDY    76  70  82 SW6       29.99F
BURLINGTON     CLOUDY    73  71  93 SE3       30.00S
LAURINBURG     CLOUDY    75  71  87 SW5       30.00F
$$

NCZ011-015-027-028-043-044-047-080-103-280800-
NORTHEASTERN NORTH CAROLINA

CITY           SKY/WX    TMP DP  RH WIND       PRES   REMARKS
ROCKY MT-WILSO CLOUDY    75  70  84 S6        29.99S
GREENVILLE     CLOUDY    73  72  94 SW6       30.01S
WASHINGTON     MOCLDY    73  70  90 S3        29.99S
ELIZABETH CITY CLEAR     73  71  93 S6        29.99F
MANTEO         MOCLDY    76  73  89 SW8       30.00F
CAPE HATTERAS  PTCLDY    77  67  71 SW8       30.01F
$$

NCZ078-087-090-091-093-098-101-280800-
SOUTHEASTERN NORTH CAROLINA

CITY           SKY/WX    TMP DP  RH WIND       PRES   REMARKS
LUMBERTON      CLOUDY    74  71  91 CALM      29.99S
GOLDSBORO      CLOUDY    74  74 100 SW1       29.98S
KINSTON        CLOUDY    73  70  91 CALM      30.00S
KENANSVILLE    MOCLDY    70  69  96 CALM      30.00S
NEW BERN       MOCLDY    71  69  93 S3        30.01F
CHERRY POINT   MOCLDY    71  68  90 SE6       30.01F
BEAUFORT       PTCLDY    76  71  85 S6        30.00F
JACKSONVILLE   MOCLDY    71  69  93 S3        29.99S
WILMINGTON     CLOUDY    74  70  87 CALM      29.99F
$$





USA.gov is the U.S. government's official web portal to all federal, state and local government web resources and services.